Regional Weather Roundup
Issued by NWS Newport/Morehead, NC

Current Version | Previous Version | Text Only | Print | Product List | Glossary On
Versions: 1 2 3 4 5 6 7 8 9 10 11 12 13 14 15 16 17 18 19 20 21 22 23 24 25 26 27 28 29 30 31 32 33 34 35 36 37 38 39 40 41 42 43 44 45 46 47 48 49 50
000
ASUS42 KMHX 292325
RWRMHX
WEATHER ROUNDUP FOR EASTERN NORTH CAROLINA
NATIONAL WEATHER SERVICE NEWPORT/MOREHEAD CITY NC
700 PM EDT WED JUL 29 2015

NOTE: "FAIR" INDICATES FEW OR NO CLOUDS BELOW 12,000 FEET
WITH NO SIGNIFICANT WEATHER AND/OR OBSTRUCTIONS TO VISIBILITY

NCZ015>017-031-032-045>047-102-103-300000-
NORTH COAST

CITY           SKY/WX    TMP DP  RH WIND       PRES   REMARKS
EDENTON          N/A     84  69  59 SE10G16   29.96S
ELIZABETH CITY SUNNY     83  71  67 SE10      29.98F
KITTY HAWK     CLEAR     85  70  61 E7        29.97F
MANTEO         MOSUNNY   82  70  68 SE7       29.99S

$$

NCZ045>047-081-094-103-104-300000-
CENTRAL COAST

CITY           SKY/WX    TMP DP  RH WIND       PRES   REMARKS
FRISCO         PTSUNNY   83  72  69 E12       29.98S
SWANQUARTER      N/A     82 N/A N/A E7        29.94S

$$

NCZ095-097-098-100-101-300000-
SOUTHERN COAST

CITY           SKY/WX    TMP DP  RH WIND       PRES   REMARKS
BEAUFORT       PTSUNNY   83  74  74 E9        29.96S
CEDAR ISLAND     N/A     82 N/A N/A E17       30.00S
JACKSONVILLE   MOSUNNY   85  70  60 SE9       29.94F
PINEY ISLAND   MOCLDY   N/A N/A N/A MISG      29.96F
WILMINGTON     MOSUNNY   83  72  69 E12       29.94F


$$

NCZ011>013-027>030-043-044-078>080-089-090>093-098-300000-
COASTAL PLAIN

CITY           SKY/WX    TMP DP  RH WIND       PRES   REMARKS
AHOSKIE        SUNNY     85  70  60 SE7       29.95S
CLINTON        SUNNY     90  72  56 E3        29.93S
ELIZABETHTOWN  MOSUNNY   88  71  56 CALM      29.93R
GOLDSBORO      MOSUNNY   88  72  58 E9        29.92S
GREENVILLE     SUNNY     86  72  62 SE10      29.97S
HAVELOCK       PTSUNNY   84  70  62 E10       29.97S
KENANSVILLE    MOSUNNY   86  70  57 E5        29.95S
KINSTON        SUNNY     88  70  55 E10       29.95F
NEW BERN       MOSUNNY   84  70  62 SE9       29.97F
RICHLANDS      MOSUNNY   86  70  58 E6        29.95S
ROCKY MOUNT    SUNNY     90  70  51 CALM      29.94F
WASHINGTON     SUNNY     83  73  71 SE9       29.96S
WHITEVILLE     SUNNY     89  71  55 E8        29.92R

$$

AMZ130-135-150-152-154-156-158-170-250-252-270-ANZ085-086-088-633-658-670-300000-
MARINE OBSERVATIONS

STATION/POSITION TIME  TEMP    WIND        PRES    WAVE   SWELL
                       AIR SEA DIR/SP/G            HT/PER HT/PER
                 (UTC) (F)     (DEG/KT/KT) (MB)    (FT/S) (FT/S)
CHESAPEAKE LIGHT 2300   80     160/ 16/ 17 1015.4
64 E VA BEACH    2250   81 83  140/  8/ 10 1015.2    2/11   2/11
DUCK             2300   81 65  130/ 10/ 11 1014.3
2 E DUCK         2211      81                N/A     2/10
OREGON INLET     2300   81 87  100/  8/ 11 1015.3
13E OREGON INLT  2300      82                N/A     3/10
HATTERAS CG      2300   82 84   90/  8/ 11 1014.6
DIAMOND BUOY     2250   82 85  100/ 12/ 16 1014.7    4/ 6   2/ 9
CAPE LOOKOUT     2300   81      60/ 14/ 16 1014.0
BEAUFORT LAB     2300   83 81   70/  9/ 14 1013.7
30 SE NEW RVR IN NOT AVBL
27 SE WRIGHTSVLE 2300   78 82   70/ 14/ 16   N/A
5 SE WRIGHTSVLE  2208   82 82   90/ 14/ 17 1013.9
225 S CAPE HAT   2250   83 82  230/ 16/ 19 1014.6    5/ 7   2/10
41 SE CHARLESTON 2250   84 85   60/ 16/ 17 1012.2    4/ 5   2/10

$$


USA.gov is the U.S. government's official web portal to all federal, state and local government web resources and services.